Preview of NWS' New Version of Forecast
This preview is not operational and should not be used for support decisions.

Regional Weather Roundup (RWR)

Issued by Gray - Portland, ME (GYX)

                            
000
ASUS41 KGYX 181910
RWRGYX
WEATHER ROUNDUP FOR MAINE AND NEW HAMPSHIRE
NATIONAL WEATHER SERVICE GRAY ME
300 PM EDT THU APR 18 2019

MEZ002-005-006-010-012-015-018-020-021-024-026-027-029-182000-
MAINE
  
CITY           SKY/WX    TMP DP  RH WIND       PRES   REMARKS
PORTLAND       CLOUDY    44  34  67 S12G30    30.20F                  
SANFORD        CLOUDY    45  34  65 SE9       30.18F                  
BAR HARBOR     CLOUDY    44  34  67 S15       30.25F                  
WISCASSET      CLOUDY    44  34  67 S9        30.23F                  
ROCKLAND       LGT RAIN  42  33  70 S10       30.24F                  
FRYEBURG       CLOUDY    45  25  45 S8        30.15F                  
LEWISTONAUBURN CLOUDY    44  34  67 S9G17     30.18F                  
AUGUSTA        CLOUDY    44  32  62 S12       30.19F                  
WATERVILLE     CLOUDY    45  26  47 S8G17     30.15F                  
BANGOR         LGT RAIN  47  30  51 S15       30.21F                  
GREENVILLE       N/A     38  28  67 S13G22    30.04F                  
MILLINOCKET    CLOUDY    50  23  34 S8        30.14F                  
HOULTON        CLOUDY    53  23  31 S13G22    30.11                   
PRESQUE ISLE     N/A     51  24  34 S17       30.07F                  
FRENCHVILLE    CLOUDY    45  22  40 SE14      30.05F                  
CARIBOU        CLOUDY    49  25  39 SE10      30.06F                  
$$

NHZ002-005-008-009-011-012-014-182000-
NEW HAMPSHIRE
  
CITY           SKY/WX    TMP DP  RH WIND       PRES   REMARKS
PORTSMOUTH     CLOUDY    44  37  74 SE15G21   30.16F                  
ROCHESTER      CLOUDY    45  36  70 S9        30.16F                  
NASHUA         CLOUDY    51  35  54 S8        30.13F                  
MANCHESTER     CLOUDY    52  31  44 S10G21    30.11F                  
CONCORD        CLOUDY    49  28  44 S14       30.13F                  
LACONIA        CLOUDY    46  29  51 SE10      30.12F                  
PLYMOUTH       CLOUDY    45  29  53 CALM      30.11F                  
BERLIN         CLOUDY    47  20  34 SE15G22   30.02F                  
WHITEFIELD     CLOUDY    50  15  24 S18G37    30.00F                  
JAFFREY        CLOUDY    48  34  58 S10       30.10F                  
KEENE          CLOUDY    49  37  63 S17G23    30.09F                  
LEBANON        CLOUDY    52  27  38 S12G24    30.04F                  
MT WASHINGTON  CLOUDY    21  12  68 S46         N/A  VSB 1   WCI   0  
$$

VTZ005-007-008-182000-
VERMONT
  
CITY           SKY/WX    TMP DP  RH WIND       PRES   REMARKS
ST JOHNSBURY     N/A     49  23  36 MISG      29.99F                  
MONTPELIER     CLOUDY    47  25  42 S22G32    30.02F                  
BURLINGTON     PTSUNNY   57  30  35 S24G39    29.87F                  
$$

MAZ007-012-024-CTZ003-RIZ002-NYZ038-NYZ072-182000-
SOUTHERN NEW ENGLAND AND NY
  
CITY           SKY/WX    TMP DP  RH WIND       PRES   REMARKS
BOSTON         CLOUDY    52  39  61 S17       30.16F                  
WORCESTER      CLOUDY    46  36  68 SE20      30.12S                  
NANTUCKET      CLOUDY    47  40  76 SE21      30.18F                  
PROVIDENCE     CLOUDY    48  42  80 S18       30.16F                  
HARTFORD       LGT RAIN  50  44  80 SE14      30.10F                  
ALBANY         CLOUDY    54  42  64 S16       30.01F                  
NEW YORK CITY  CLOUDY    61  55  81 SE15      30.00F                  
$$

ANZ081-ANZ082-ANZ150-NHZ014-MEZ023>029-182000-
COASTAL MARINE OBSERVATIONS
  
STATION/POSITION TIME  TEMP    WIND        PRES    WAVE
                       AIR SEA DIR/SP/G            HT/PER
                 (UTC) (F)     (DEG/KT/KT) (MB)    (FT/S)
ISLE OF SHOALS   1900   42     140/ 21/ 23 1020.7F
$$

.............KEY..............
   WCI - WIND CHILL
   TC  - TEMPERATURE IN CELSIUS
   VSB - VISIBILITY IN MILES
   HX  - HEAT INDEX
   FAIR- INDICATES FEW OR NO CLOUDS BELOW 12,000 FT, WITH NO 
         SIGNIFICANT WEATHER AND/OR OBSTRUCTIONS TO VISIBILITY.